STARLINK-11292 [DTC] (61203 NORAD) Tracking and Keplerian Element Data

This shows tracking and keplerian element data for the satellite.

Feedback or suggestion? Click here.




ElementValue
Catalog61203
NameSTARLINK-11292 [DTC]
Epoch Orbit377
Epoch Day286.44943319
Epoch Year2024
RAAN187.4555
Inclination53.1571
Eccentricity0.0001299
Argument of Perigee118.4458
Mean Anonmoly241.6694
Mean Motion15.76815968
Decay Rate0.00072817
L11 61203U 24171D 24286.44943319 .00072817 00000+0 44338-3 0 9995
L22 61203 53.1571 187.4555 0001299 118.4458 241.6694 15.76815968 3778



Live tracking and technical data element details for STARLINK-11292 [DTC] (NORAD 61203). STARLINK-11292 [DTC] can be tracked NOW for your location showing map with azimuth and elevation plus other details from your city location.







IsCatalogInMostPopularTable: catalog: 61203, numindb: 24
Update: records affected: 1



GetName: 61203 STARLINK-11292 [DTC]

Hit Count: updated at: Wed, 04 Dec 2024 08:43:35 GMT